Regional Weather Roundup
Issued by NWS

Home | Current Version | Previous Version | Text Only | Print | Product List | Glossary Off
Versions: 1 2 3 4 5 6 7 8 9 10 11 12 13 14 15 16 17 18 19 20 21 22 23 24 25 26 27 28 29 30 31 32 33 34 35 36 37 38 39 40 41 42 43 44 45 46 47 48 49 50

000
ASUS43 KLMK 272310
RWRKY
KENTUCKY REGIONAL WEATHER ROUNDUP
NATIONAL WEATHER SERVICE LOUISVILLE KY
700 PM EDT MON MAR 27 2017

NOTE "FAIR" INDICATES FEW OR NO CLOUDS BELOW 12,000 FEET
WITH NO SIGNIFICANT WEATHER AND/OR OBSTRUCTIONS TO VISIBILITY.

KYZ001>023-026-027-061>063-070>075-280000-
WESTERN AND SOUTH CENTRAL KENTUCKY

CITY           SKY/WX    TMP DP  RH WIND       PRES   REMARKS
PADUCAH        PTSUNNY   63  55  75 SW5       29.80S
HENDERSON      PTSUNNY   61  54  77 SW7       29.78F
OWENSBORO      PTSUNNY   59  56  89 VRB5      29.81R
HOPKINSVILLE   LGT RAIN  57  57 100 CALM      29.84R
BOWLING GREEN  LGT RAIN  59  56  89 SE8       29.88F
GLASGOW        TSTM     N/A N/A N/A S3        29.90F
$$

KYZ024-025-028>034-038-045-046-053-280000-
NORTH CENTRAL KENTUCKY

CITY           SKY/WX    TMP DP  RH WIND       PRES   REMARKS
LOUISVILLE/SDF TSTM      61  55  81 SW13      29.87R
LOUISVILLE/LOU TSTM      61  57  87 S10G20    29.87R FOG
FORT KNOX      TSTM      57  57 100 S12       29.84F
$$

KYZ035>037-039>044-047>052-055>060-089>105-280000-
NORTHEAST KENTUCKY

CITY           SKY/WX    TMP DP  RH WIND       PRES   REMARKS
LEXINGTON      CLOUDY    66  56  70 SE6       29.84F
COVINGTON      CLOUDY    67  56  67 SE9       29.83F
FRANKFORT      TSTM      58  53  84 NE6       29.84R
$$

KYZ054-064>069-076>088-106>120-280000-
SOUTHEAST KENTUCKY

CITY           SKY/WX    TMP DP  RH WIND       PRES   REMARKS
JACKSON        CLEAR     65  57  75 CALM      29.89S
LONDON         LGT RAIN  69  55  60 CALM      29.87S
SOMERSET       CLOUDY    61  55  82 CALM      29.88R
MIDDLESBORO    PTCLDY    73  51  46 S6G23     29.89R
MONTICELLO     CLOUDY    70  56  61 NW9       29.88R
$$





USA.gov is the U.S. government's official web portal to all federal, state and local government web resources and services.